Vorticity
26 25 25 27 30 32 33 33 31 26 21 18 14 13 14 13 15 16 16 12 8 6 5 6 5 5 5 4 4 5 5 5 6 6 6 6 6 6 5 5 6 6 7 7 7 6 7 8 10 9 6 2 -1 -2 -1 1 1 0 -0 -0 5 12 19 23 20 19 18 17 20
29 26 25 26 27 28 28 27 32 28 22 20 17 15 15 16 17 18 17 17 12 7 5 5 5 5 5 4 4 4 4 5 5 5 5 6 6 6 5 5 4 6 7 7 7 7 7 8 9 6 3 2 -0 -1 -1 1 1 0 2 7 17 25 28 26 19 15 13 12 15
34 29 27 26 28 28 28 25 29 28 25 23 21 19 18 18 19 18 17 17 15 10 7 4 5 5 6 6 5 4 4 4 5 5 5 5 5 5 5 5 5 6 7 7 7 7 7 9 7 2 -1 2 -0 -1 -0 1 1 4 10 22 29 30 27 19 11 7 5 5 8
41 36 32 29 29 30 31 31 31 29 27 27 26 23 20 19 19 19 19 18 16 12 9 4 4 5 6 7 5 4 3 4 5 4 4 4 4 4 5 5 6 7 7 8 9 9 9 8 5 -0 -3 1 0 1 1 1 3 12 23 34 31 25 17 9 4 1 0 0 2
46 43 39 36 34 33 34 35 34 32 29 28 28 25 21 18 18 19 20 21 19 16 12 7 4 4 5 6 6 5 4 5 5 5 5 4 4 4 4 4 5 7 9 10 10 10 9 8 4 0 -2 -0 1 2 2 2 9 23 35 37 27 18 11 6 5 4 3 3 5
46 45 44 42 39 37 36 35 34 31 27 23 24 25 23 20 19 19 20 22 21 20 18 14 9 7 6 6 8 8 8 7 7 6 6 5 5 5 4 5 5 5 7 9 9 9 9 8 4 2 0 1 2 2 2 3 14 27 35 34 25 18 12 10 10 10 10 9 11
42 43 43 43 41 39 37 35 33 30 26 22 22 23 23 22 22 22 21 22 23 23 21 18 14 11 9 9 10 11 11 10 10 9 8 7 7 5 5 4 4 4 5 5 7 8 9 8 5 3 2 3 3 3 3 6 15 20 23 28 30 27 22 17 15 13 12 11 11
40 41 41 40 40 38 36 33 28 25 23 22 20 20 20 21 21 21 22 22 22 22 21 19 16 14 12 12 12 12 13 13 12 11 10 9 9 8 7 6 6 5 4 4 6 7 8 8 6 3 2 4 5 4 6 11 21 16 9 10 24 32 33 27 20 14 10 9 9
29 31 32 33 34 31 27 22 22 22 22 21 20 19 19 19 19 18 17 18 20 21 21 19 16 14 14 15 14 14 14 15 14 13 11 10 10 10 10 9 9 8 8 7 7 8 9 9 6 3 2 3 6 5 7 14 26 22 11 -2 8 22 33 35 27 18 12 9 10
9 11 12 13 14 12 12 14 16 17 18 20 21 21 21 20 19 19 18 18 20 23 25 24 19 17 17 18 17 15 15 16 16 14 13 12 11 12 12 12 11 10 11 11 10 10 10 9 6 3 1 2 5 3 1 2 13 18 16 8 6 13 23 33 30 23 15 10 10
6 7 7 8 8 6 5 7 13 17 20 21 22 22 22 22 20 18 17 16 17 20 24 26 23 21 20 20 21 19 18 19 18 17 16 14 14 13 13 13 12 12 12 12 12 11 11 10 7 4 1 1 3 -0 -6 -13 -9 -3 5 10 12 16 20 26 27 23 16 8 5
8 9 11 14 10 7 6 10 15 19 22 23 22 21 20 19 18 16 15 17 15 16 18 21 21 21 21 22 22 22 22 21 20 19 18 17 18 18 16 14 14 14 14 13 13 13 12 11 7 4 1 -0 1 -2 -8 -16 -19 -17 -11 -4 6 15 21 24 25 25 21 14 8
8 10 12 13 9 6 7 11 16 19 20 20 21 21 19 17 17 16 16 17 18 16 15 17 19 21 22 23 23 22 21 20 19 19 18 17 17 17 17 17 17 17 16 15 14 13 13 11 8 5 2 -0 -0 -1 -5 -10 -15 -17 -16 -12 -4 5 14 19 21 23 24 23 19
9 10 11 10 7 6 7 11 14 16 18 19 21 21 19 17 17 17 18 17 18 18 17 17 20 22 22 22 22 22 21 19 19 18 17 16 15 16 16 17 17 18 19 18 16 15 13 12 9 6 3 1 -0 -1 -1 -4 -8 -11 -12 -11 -7 -2 4 9 12 16 19 23 23
11 11 10 9 8 7 7 9 12 15 18 20 20 20 18 16 16 17 17 18 18 19 20 20 21 21 21 21 21 20 20 19 19 19 19 18 17 17 17 17 17 18 19 19 17 15 14 12 10 7 5 3 2 1 1 0 -2 -5 -6 -5 -4 -2 0 3 4 7 10 13 16
11 9 9 9 10 10 10 11 14 17 18 17 19 19 19 16 15 15 15 15 17 19 21 21 19 18 17 18 19 19 19 20 20 21 21 21 20 20 20 18 18 18 18 18 17 16 14 12 10 8 6 5 4 4 3 3 2 2 1 1 1 2 4 5 4 3 3 4 6
9 8 8 11 14 14 13 14 17 16 13 7 15 22 25 22 18 16 15 15 17 18 17 15 13 12 11 13 16 18 19 19 20 21 23 24 24 23 22 21 20 19 18 17 17 17 16 15 13 10 8 7 7 7 7 7 7 7 7 6 6 7 9 10 8 5 3 2 2
9 10 13 17 19 19 17 17 14 8 1 0 9 18 24 24 21 19 17 15 15 13 10 6 6 7 9 11 13 15 15 16 16 17 19 21 22 23 23 23 22 21 20 19 19 19 18 17 15 13 11 10 10 10 11 11 12 12 12 11 11 12 13 14 11 9 7 6 3
9 12 15 18 19 17 15 13 3 -6 -8 -2 4 7 9 10 16 19 19 16 14 10 5 1 1 3 6 10 12 13 14 14 14 14 14 14 16 18 20 21 21 21 20 20 20 19 19 18 17 15 13 12 13 14 15 16 16 16 16 16 16 17 17 17 13 11 10 9 6
9 11 12 10 7 5 4 2 -3 -5 -3 2 2 -0 -1 1 12 18 20 19 14 8 1 -4 -4 -0 4 8 10 11 12 13 14 14 13 12 12 13 15 17 18 19 19 19 19 18 18 18 18 17 16 16 16 17 18 18 19 19 19 19 20 20 19 17 14 13 11 9 7
10 12 10 2 -7 -9 -6 -1 3 7 10 10 5 1 -1 1 8 15 20 21 15 7 -1 -6 -5 -1 4 8 8 8 8 9 11 13 14 13 12 11 11 13 14 15 16 16 16 16 17 17 17 18 18 19 19 19 19 19 19 19 19 19 20 19 18 16 14 12 11 9 7
13 13 10 -0 -10 -10 -4 5 11 14 16 15 12 8 5 4 5 10 15 19 14 7 -0 -4 -3 0 4 8 9 8 6 5 6 9 12 14 14 12 11 9 10 11 12 13 13 14 14 15 15 16 16 17 18 18 18 17 17 16 16 16 16 16 15 15 14 13 11 10 8
12 12 11 5 2 3 8 13 16 17 17 17 15 12 10 8 7 8 11 15 12 8 2 -2 -2 -1 3 8 12 12 10 6 4 5 6 9 12 12 11 9 9 9 10 11 12 11 11 11 11 11 12 12 13 14 14 14 14 14 14 13 13 13 13 13 13 14 14 14 14
3 4 5 5 7 9 11 13 15 16 16 15 13 12 12 12 10 10 11 13 12 9 6 2 1 3 7 12 15 16 15 13 9 7 5 6 8 9 11 11 10 11 11 12 12 11 10 9 8 8 9 9 10 10 11 12 13 13 14 14 14 15 15 15 15 15 15 16 17
1 -0 -0 1 3 4 5 6 7 9 10 11 10 10 11 12 12 11 11 11 11 11 9 8 9 11 14 16 16 17 17 16 15 13 10 9 9 9 10 11 11 11 12 12 13 12 11 10 9 9 9 10 10 11 12 13 14 15 16 17 18 19 19 19 19 18 17 16 16
8 6 5 4 4 4 4 4 3 3 4 6 7 7 7 7 7 8 8 8 10 11 13 14 16 18 19 18 16 16 16 17 17 16 15 13 12 12 12 12 11 11 11 12 12 12 11 11 11 11 11 12 12 13 14 14 15 16 16 17 18 19 20 20 20 19 18 16 14
11 9 8 8 7 7 7 5 3 2 3 4 5 5 5 5 5 6 7 8 10 12 13 15 16 17 18 18 17 17 17 17 17 17 17 16 15 14 13 13 12 11 11 11 11 10 10 10 10 10 10 10 10 10 10 10 11 11 12 12 12 13 13 13 13 13 12 11 10
17 14 12 11 10 10 9 8 7 7 6 6 6 6 6 6 6 6 6 6 6 6 5 5 4 4 6 8 11 13 14 15 16 16 17 17 17 16 16 15 14 13 12 11 11 10 10 9 8 7 5 4 3 2 2 2 3 3 3 3 3 3 3 3 4 4 4 4 4
22 22 21 19 18 16 14 12 11 10 9 8 8 7 7 5 4 2 1 0 0 -1 -2 -4 -7 -7 -6 -3 -1 1 3 5 6 8 10 11 13 14 15 16 16 16 16 15 14 13 12 12 10 8 6 3 1 -1 -1 -1 -1 -1 -1 -1 -1 -1 -1 -0 0 0 0 0 1
17 19 20 21 21 20 18 17 15 14 12 11 10 8 6 4 2 0 -1 -1 -2 -2 -3 -5 -5 -5 -4 -3 -2 -1 -1 -0 -0 -0 1 3 5 7 9 10 12 14 15 16 16 16 15 15 14 12 11 9 7 5 4 4 3 3 3 4 4 4 5 5 5 5 4 4 4
9 11 12 14 15 16 16 16 15 14 13 12 11 10 8 7 6 4 3 2 2 2 2 1 1 2 1 1 1 1 2 1 2 2 3 4 4 4 5 6 7 9 10 12 13 13 14 14 14 14 13 12 11 11 10 9 9 8 8 8 8 8 9 9 9 9 9 9 8
9 9 10 10 11 11 12 13 13 14 14 14 14 14 14 14 13 13 12 11 11 10 10 9 9 9 9 9 9 8 8 8 8 9 10 10 9 8 8 7 7 7 8 8 9 10 10 11 11 11 11 11 11 11 11 10 10 9 9 9 8 8 8 9 9 9 9 9 9
14 14 13 13 13 13 13 14 14 14 15 16 16 16 17 18 18 19 19 19 19 19 18 18 17 16 16 15 15 14 14 14 14 14 15 16 16 15 14 13 11 10 9 8 8 8 8 8 8 9 9 9 9 9 9 9 9 9 8 8 8 7 7 7 7 7 7 7 7
14 14 14 14 14 14 14 14 14 14 14 14 14 14 15 15 15 15 16 16 16 17 17 17 17 17 16 15 15 14 13 12 12 12 12 13 14 14 15 15 14 13 12 10 9 9 9 8 8 8 8 8 8 8 8 8 8 8 8 8 8 8 7 7 7 7 7 7 7
9 9 9 9 9 9 9 9 9 9 9 10 10 10 10 10 10 10 10 10 10 10 10 10 10 10 10 10 10 9 9 8 7 7 6 6 7 7 8 9 10 10 10 10 9 9 9 9 8 8 8 8 8 8 8 8 8 8 8 8 8 8 8 8 8 8 8 8 8
6 6 6 6 6 6 6 6 6 7 7 7 7 7 7 7 7 7 7 7 7 7 7 7 7 7 7 6 6 6 6 6 5 5 5 4 4 5 5 5 6 7 7 8 8 8 8 8 8 8 8 7 7 7 7 7 7 7 7 8 8 8 8 8 8 8 8 8 8
5 5 5 5 5 6 5 5 5 6 6 5 5 5 5 5 5 5 5 6 6 6 6 6 6 5 5 5 5 5 5 4 4 4 4 4 3 3 3 3 3 4 4 5 5 5 6 6 6 6 6 7 7 7 7 7 7 7 7 7 7 7 7 7 7 7 7 7 7
5 5 5 5 5 5 5 5 5 5 4 4 4 4 4 4 4 4 4 4 4 4 4 4 4 4 4 4 4 4 4 3 3 3 3 3 2 2 2 2 2 2 2 2 2 2 3 3 4 4 4 5 5 5 5 5 5 5 6 6 6 6 6 6 6 6 6 7 7
5 5 5 4 4 4 4 4 4 4 4 4 4 4 4 4 4 4 4 4 4 4 4 4 4 4 4 4 4 3 3 3 3 3 3 3 3 2 2 2 2 2 1 1 2 2 2 2 2 2 3 3 3 3 3 3 3 3 3 3 4 4 4 4 4 4 5 5 5
4 4 4 4 4 4 4 4 4 4 4 4 4 4 4 4 4 4 4 4 4 4 4 4 3 3 3 3 3 3 3 3 3 3 3 3 3 3 3 3 2 2 2 2 2 2 2 2 2 2 1 1 1 2 2 2 2 2 2 2 2 2 2 2 3 3 3 3 3
4 4 4 4 3 3 3 3 4 4 4 3 3 3 3 3 3 3 3 3 3 3 3 2 2 2 2 2 2 2 2 2 2 2 2 2 2 2 2 2 2 2 2 2 2 1 1 1 1 1 0 0 0 0 0 0 1 1 1 1 2 2 2 2 3 3 3 3 3
Height
5580 5583 5587 5592 5596 5602 5608 5612 5615 5617 5620 5624 5627 5631 5635 5639 5642 5644 5646 5649 5653 5656 5659 5662 5664 5666 5668 5670 5671 5672 5674 5675 5677 5679 5681 5682 5684 5685 5687 5689 5690 5692 5693 5695 5696 5697 5697 5698 5699 5699 5700 5700 5700 5701 5701 5702 5704 5705 5705 5706 5706 5706 5706 5706 5705 5705 5707 5707 5708
5577 5580 5583 5586 5590 5595 5599 5602 5605 5608 5613 5618 5623 5627 5630 5634 5636 5640 5642 5645 5649 5651 5654 5657 5659 5662 5664 5665 5666 5668 5670 5672 5674 5675 5677 5679 5680 5682 5684 5685 5688 5689 5690 5691 5692 5693 5694 5695 5695 5696 5697 5697 5698 5699 5699 5700 5700 5701 5701 5701 5701 5702 5703 5703 5702 5703 5704 5705 5705
5575 5578 5581 5584 5588 5591 5595 5599 5602 5606 5610 5615 5619 5622 5625 5628 5630 5632 5635 5637 5641 5645 5649 5653 5655 5657 5659 5660 5662 5664 5666 5668 5670 5672 5674 5675 5677 5678 5680 5682 5685 5686 5686 5687 5688 5689 5690 5691 5692 5693 5694 5694 5695 5696 5696 5696 5697 5697 5697 5696 5696 5697 5698 5698 5699 5700 5701 5702 5702
5573 5576 5580 5583 5586 5590 5594 5598 5602 5606 5610 5613 5617 5620 5622 5624 5626 5628 5631 5634 5638 5642 5645 5649 5651 5653 5655 5656 5659 5661 5663 5665 5666 5668 5670 5671 5673 5675 5677 5679 5681 5682 5683 5684 5685 5686 5686 5687 5689 5690 5690 5691 5692 5693 5693 5692 5693 5693 5693 5692 5692 5693 5693 5693 5695 5695 5696 5697 5698
5573 5576 5579 5583 5586 5590 5594 5597 5601 5605 5608 5611 5613 5615 5618 5620 5622 5625 5628 5632 5636 5640 5642 5645 5647 5649 5651 5653 5655 5658 5660 5662 5663 5665 5666 5668 5670 5672 5674 5675 5677 5679 5680 5681 5682 5683 5684 5685 5685 5686 5687 5688 5688 5688 5688 5689 5690 5690 5690 5689 5689 5689 5689 5690 5691 5691 5692 5693 5694
5574 5576 5580 5583 5586 5590 5593 5597 5600 5603 5606 5609 5610 5612 5615 5618 5621 5625 5627 5630 5633 5636 5639 5642 5645 5646 5648 5650 5652 5655 5657 5659 5660 5662 5663 5665 5667 5669 5671 5672 5674 5675 5676 5677 5679 5680 5681 5682 5683 5683 5683 5684 5684 5684 5685 5685 5686 5686 5686 5686 5686 5686 5687 5687 5687 5688 5689 5690 5691
5575 5577 5580 5584 5587 5590 5593 5596 5599 5602 5605 5608 5609 5611 5613 5616 5620 5623 5626 5628 5631 5634 5637 5639 5641 5644 5645 5647 5649 5651 5653 5655 5657 5658 5660 5662 5664 5666 5667 5669 5670 5671 5672 5673 5675 5676 5677 5679 5679 5680 5680 5680 5680 5680 5681 5682 5682 5681 5681 5682 5682 5684 5685 5685 5686 5686 5687 5688 5689
5576 5579 5582 5585 5588 5591 5594 5597 5601 5604 5606 5607 5608 5610 5613 5616 5619 5621 5624 5626 5630 5632 5635 5637 5639 5641 5642 5644 5646 5649 5650 5652 5654 5655 5656 5658 5660 5662 5664 5665 5666 5667 5668 5669 5670 5671 5673 5675 5675 5676 5677 5677 5677 5677 5678 5678 5678 5677 5677 5677 5677 5679 5680 5682 5683 5684 5685 5685 5685
5579 5581 5584 5586 5589 5593 5597 5600 5603 5605 5605 5606 5609 5611 5613 5616 5618 5621 5624 5627 5629 5631 5633 5636 5638 5639 5640 5642 5644 5646 5648 5650 5651 5652 5654 5655 5657 5658 5660 5662 5663 5665 5666 5667 5667 5668 5669 5670 5671 5673 5673 5674 5674 5675 5675 5675 5675 5673 5673 5673 5674 5675 5675 5677 5678 5678 5678 5679 5680
5583 5584 5586 5588 5592 5597 5601 5603 5603 5603 5604 5606 5609 5611 5614 5616 5619 5621 5624 5626 5628 5630 5632 5635 5636 5637 5639 5641 5643 5645 5646 5647 5648 5650 5651 5652 5654 5655 5656 5657 5659 5660 5662 5663 5664 5665 5666 5667 5667 5668 5669 5670 5671 5672 5673 5673 5672 5671 5670 5670 5670 5671 5672 5672 5673 5673 5674 5674 5674
5586 5587 5588 5592 5597 5601 5603 5602 5602 5603 5605 5607 5609 5611 5614 5616 5619 5621 5623 5625 5626 5628 5630 5631 5633 5635 5638 5640 5641 5643 5644 5645 5646 5647 5648 5650 5651 5652 5653 5655 5656 5657 5658 5659 5660 5661 5662 5664 5665 5665 5665 5666 5667 5668 5669 5669 5669 5669 5669 5668 5668 5668 5668 5669 5670 5670 5670 5670 5671
5588 5590 5593 5597 5600 5602 5602 5602 5603 5604 5606 5607 5609 5611 5613 5615 5618 5620 5622 5624 5625 5626 5628 5629 5631 5633 5635 5637 5638 5640 5641 5642 5643 5645 5646 5647 5648 5649 5650 5651 5652 5654 5655 5655 5656 5657 5658 5659 5660 5661 5662 5663 5663 5664 5665 5665 5665 5666 5666 5666 5666 5666 5666 5665 5666 5666 5666 5667 5668
5592 5595 5598 5600 5600 5601 5601 5602 5604 5605 5606 5608 5609 5611 5612 5614 5617 5619 5621 5623 5624 5625 5626 5628 5630 5631 5633 5634 5635 5637 5638 5639 5640 5642 5643 5644 5645 5645 5647 5648 5649 5650 5651 5652 5653 5654 5655 5655 5656 5657 5658 5659 5660 5660 5661 5662 5662 5663 5663 5664 5664 5664 5664 5664 5664 5664 5664 5664 5665
5595 5597 5598 5599 5600 5601 5602 5603 5604 5605 5607 5608 5610 5610 5612 5614 5616 5618 5620 5621 5622 5624 5625 5626 5628 5629 5630 5632 5633 5635 5635 5636 5638 5639 5640 5641 5642 5643 5644 5645 5646 5647 5648 5649 5650 5650 5651 5652 5653 5654 5654 5655 5655 5656 5657 5657 5658 5659 5660 5661 5661 5662 5662 5662 5661 5661 5660 5660 5660
5596 5597 5599 5600 5600 5601 5603 5604 5605 5606 5607 5608 5609 5610 5611 5613 5615 5616 5618 5619 5620 5622 5623 5625 5626 5627 5628 5629 5630 5631 5633 5634 5635 5636 5637 5638 5639 5640 5641 5642 5643 5644 5645 5646 5647 5648 5649 5649 5650 5650 5651 5651 5652 5653 5653 5654 5654 5655 5655 5656 5658 5659 5660 5660 5660 5659 5658 5657 5657
5598 5599 5600 5601 5601 5602 5604 5605 5606 5607 5608 5609 5609 5610 5611 5612 5613 5615 5616 5617 5619 5620 5621 5623 5624 5625 5627 5628 5629 5629 5630 5631 5632 5633 5635 5635 5637 5638 5639 5640 5640 5641 5642 5643 5643 5644 5645 5645 5646 5647 5647 5648 5649 5650 5650 5650 5651 5651 5651 5652 5653 5654 5655 5656 5657 5657 5657 5656 5655
5599 5600 5601 5602 5603 5603 5605 5607 5608 5609 5610 5610 5611 5611 5611 5612 5613 5614 5615 5616 5617 5619 5620 5622 5623 5624 5625 5626 5627 5628 5629 5630 5630 5632 5633 5633 5634 5635 5635 5636 5637 5638 5639 5639 5640 5640 5641 5642 5643 5643 5644 5645 5645 5646 5647 5647 5648 5648 5648 5649 5649 5650 5650 5650 5651 5652 5652 5653 5653
5600 5601 5602 5602 5603 5604 5605 5608 5609 5610 5610 5611 5612 5612 5612 5613 5613 5614 5615 5615 5617 5618 5620 5621 5622 5623 5624 5625 5626 5627 5627 5628 5629 5630 5631 5631 5632 5632 5633 5634 5634 5634 5635 5635 5635 5636 5637 5638 5639 5640 5641 5641 5642 5642 5643 5644 5644 5644 5645 5645 5645 5645 5646 5646 5646 5646 5647 5647 5648
5601 5601 5602 5603 5604 5605 5606 5608 5609 5609 5610 5610 5611 5612 5613 5613 5613 5613 5614 5615 5616 5617 5619 5620 5621 5622 5623 5624 5624 5625 5625 5626 5627 5628 5629 5630 5630 5630 5631 5631 5631 5631 5632 5632 5632 5633 5634 5635 5636 5637 5638 5638 5639 5639 5639 5640 5640 5640 5640 5641 5641 5641 5642 5642 5642 5643 5643 5643 5643
5601 5602 5603 5603 5604 5605 5607 5608 5608 5609 5609 5609 5610 5611 5611 5612 5612 5612 5613 5614 5615 5616 5617 5618 5619 5620 5621 5621 5622 5623 5624 5624 5625 5625 5626 5627 5628 5629 5629 5629 5630 5630 5630 5630 5630 5631 5631 5632 5633 5633 5634 5635 5635 5635 5635 5636 5636 5636 5636 5637 5637 5637 5638 5638 5639 5639 5639 5639 5639
5602 5603 5604 5605 5605 5606 5606 5607 5607 5608 5608 5609 5609 5610 5610 5610 5611 5612 5612 5613 5615 5615 5616 5617 5618 5618 5619 5620 5620 5621 5621 5622 5623 5623 5624 5625 5625 5626 5626 5627 5627 5627 5627 5628 5628 5628 5629 5629 5630 5630 5630 5631 5631 5631 5632 5632 5632 5633 5633 5633 5633 5633 5634 5634 5635 5635 5635 5635 5635
5603 5604 5605 5605 5605 5606 5606 5606 5607 5607 5608 5608 5609 5609 5609 5610 5610 5611 5612 5613 5614 5615 5615 5616 5616 5617 5617 5618 5619 5619 5620 5620 5620 5621 5622 5622 5623 5623 5624 5624 5625 5625 5625 5625 5625 5625 5625 5626 5626 5627 5627 5628 5628 5628 5628 5628 5628 5629 5629 5629 5629 5630 5630 5630 5630 5630 5630 5630 5631
5603 5604 5605 5605 5605 5605 5605 5606 5606 5606 5607 5607 5608 5609 5609 5610 5610 5611 5611 5612 5613 5613 5614 5615 5615 5615 5616 5616 5617 5617 5617 5618 5618 5619 5619 5620 5620 5620 5621 5621 5622 5622 5622 5622 5622 5622 5622 5623 5623 5623 5624 5624 5624 5624 5624 5624 5624 5624 5625 5625 5625 5625 5625 5625 5625 5625 5625 5625 5625
5603 5604 5604 5605 5605 5605 5605 5605 5605 5605 5606 5607 5607 5608 5608 5609 5610 5610 5611 5611 5612 5612 5613 5613 5613 5614 5614 5614 5614 5615 5615 5615 5616 5616 5617 5617 5617 5618 5618 5619 5619 5619 5619 5620 5620 5620 5620 5620 5620 5620 5620 5620 5620 5620 5620 5620 5620 5620 5620 5620 5620 5620 5620 5620 5620 5621 5621 5621 5621
5603 5604 5604 5604 5604 5605 5605 5605 5605 5605 5606 5607 5607 5607 5608 5608 5609 5609 5610 5610 5611 5611 5612 5612 5612 5612 5612 5612 5612 5612 5613 5613 5613 5614 5614 5614 5615 5615 5615 5615 5616 5616 5616 5616 5617 5617 5617 5617 5617 5617 5617 5617 5617 5617 5617 5617 5617 5617 5617 5617 5617 5616 5616 5616 5616 5616 5616 5616 5616
5604 5604 5604 5605 5605 5605 5605 5605 5605 5605 5606 5606 5606 5607 5607 5607 5608 5609 5609 5610 5610 5610 5610 5611 5611 5611 5611 5610 5611 5611 5611 5611 5611 5611 5611 5612 5612 5612 5612 5613 5613 5613 5613 5613 5614 5614 5614 5614 5614 5614 5613 5613 5613 5613 5613 5613 5613 5613 5613 5613 5613 5613 5613 5612 5612 5612 5612 5612 5612
5604 5604 5604 5605 5605 5605 5605 5605 5605 5605 5605 5606 5606 5606 5606 5607 5607 5608 5608 5609 5609 5609 5609 5609 5609 5609 5609 5609 5609 5609 5609 5609 5609 5609 5609 5609 5609 5610 5610 5610 5610 5610 5610 5610 5610 5610 5610 5610 5610 5610 5610 5610 5610 5610 5610 5610 5609 5610 5610 5609 5609 5609 5609 5609 5609 5609 5608 5608 5608
5604 5604 5604 5604 5604 5605 5605 5605 5605 5605 5605 5605 5605 5606 5606 5606 5606 5607 5607 5607 5607 5607 5608 5608 5608 5608 5608 5608 5608 5608 5608 5608 5607 5607 5607 5607 5607 5607 5607 5607 5607 5607 5607 5607 5607 5607 5607 5607 5607 5606 5606 5606 5605 5605 5605 5605 5605 5605 5605 5605 5605 5605 5605 5605 5605 5605 5605 5604 5604
5604 5604 5604 5604 5604 5604 5604 5605 5605 5605 5605 5605 5605 5605 5605 5605 5605 5606 5606 5606 5606 5606 5606 5606 5606 5606 5606 5606 5606 5606 5606 5606 5606 5606 5605 5605 5605 5605 5605 5605 5605 5604 5604 5604 5604 5604 5604 5604 5603 5603 5603 5602 5602 5601 5601 5601 5601 5601 5601 5601 5601 5601 5601 5600 5600 5600 5600 5600 5600
5604 5604 5604 5604 5604 5604 5604 5604 5604 5604 5604 5604 5604 5605 5605 5605 5605 5605 5605 5605 5605 5605 5605 5605 5605 5605 5605 5604 5604 5604 5604 5604 5604 5603 5603 5603 5603 5603 5602 5602 5602 5602 5601 5601 5601 5601 5600 5600 5600 5600 5599 5599 5598 5597 5597 5597 5597 5596 5596 5596 5596 5596 5596 5595 5595 5595 5595 5595 5595
5603 5603 5604 5604 5604 5604 5604 5604 5604 5604 5604 5604 5604 5604 5604 5604 5604 5604 5604 5604 5604 5604 5604 5603 5603 5603 5603 5603 5602 5602 5602 5601 5601 5601 5601 5600 5600 5600 5600 5600 5599 5599 5598 5598 5598 5597 5597 5597 5596 5596 5595 5595 5595 5594 5593 5593 5592 5592 5592 5591 5591 5591 5590 5590 5590 5590 5590 5590 5590
5603 5604 5604 5604 5604 5604 5604 5604 5604 5604 5604 5604 5604 5604 5604 5604 5604 5604 5603 5603 5603 5603 5603 5602 5602 5602 5601 5601 5601 5600 5600 5600 5599 5599 5598 5598 5597 5597 5597 5596 5596 5595 5595 5595 5594 5594 5594 5593 5593 5592 5592 5591 5590 5590 5589 5589 5588 5588 5587 5587 5586 5586 5586 5585 5585 5585 5585 5585 5584
5604 5604 5604 5604 5604 5604 5604 5604 5604 5604 5604 5604 5604 5604 5604 5604 5603 5603 5603 5602 5602 5602 5602 5601 5601 5601 5600 5600 5599 5599 5598 5598 5597 5596 5596 5595 5595 5594 5594 5593 5593 5592 5592 5591 5591 5590 5590 5590 5589 5589 5588 5587 5587 5586 5585 5585 5584 5584 5583 5583 5582 5581 5581 5581 5580 5580 5580 5580 5579
5604 5604 5604 5604 5604 5604 5604 5604 5604 5604 5604 5604 5603 5603 5603 5603 5603 5602 5602 5602 5601 5601 5600 5600 5600 5599 5599 5598 5598 5597 5596 5595 5595 5594 5593 5593 5592 5592 5591 5590 5590 5589 5589 5588 5587 5587 5586 5586 5585 5585 5584 5584 5583 5582 5582 5581 5580 5580 5579 5578 5578 5577 5577 5576 5576 5575 5575 5575 5574
5604 5604 5604 5604 5604 5604 5604 5603 5603 5603 5603 5603 5603 5602 5602 5602 5601 5601 5601 5600 5600 5599 5599 5598 5598 5597 5597 5596 5595 5595 5594 5593 5593 5592 5591 5590 5589 5589 5588 5587 5586 5586 5585 5585 5584 5583 5583 5582 5581 5581 5580 5580 5579 5578 5577 5576 5576 5575 5574 5574 5573 5572 5572 5571 5570 5570 5570 5569 5569
5603 5603 5603 5603 5603 5603 5603 5602 5602 5602 5602 5602 5601 5601 5601 5600 5600 5599 5599 5598 5598 5597 5597 5596 5596 5595 5594 5594 5593 5592 5591 5590 5590 5589 5588 5587 5586 5585 5584 5583 5582 5582 5581 5580 5580 5579 5579 5578 5577 5577 5576 5575 5575 5574 5573 5572 5571 5570 5570 5569 5568 5567 5566 5566 5565 5564 5564 5563 5563
5603 5602 5602 5602 5602 5602 5602 5601 5601 5601 5600 5600 5600 5600 5599 5599 5598 5597 5597 5596 5595 5595 5595 5594 5593 5592 5591 5590 5590 5589 5588 5587 5586 5585 5584 5583 5582 5580 5580 5578 5577 5576 5575 5575 5575 5574 5574 5573 5572 5572 5571 5570 5570 5569 5568 5567 5566 5565 5564 5563 5562 5561 5560 5560 5559 5558 5558 5557 5556
5602 5601 5601 5601 5601 5601 5600 5600 5600 5599 5599 5598 5598 5597 5597 5596 5596 5595 5594 5594 5593 5592 5592 5591 5590 5589 5588 5587 5586 5585 5584 5583 5582 5580 5580 5578 5577 5576 5575 5573 5572 5570 5569 5568 5567 5567 5566 5566 5566 5565 5565 5565 5564 5563 5562 5561 5560 5560 5559 5558 5556 5555 5555 5554 5553 5552 5551 5550 5550
5600 5600 5600 5600 5600 5599 5599 5599 5598 5597 5597 5596 5596 5595 5595 5594 5593 5592 5592 5591 5590 5589 5589 5588 5587 5586 5585 5584 5583 5581 5580 5579 5578 5577 5575 5574 5573 5571 5570 5568 5567 5565 5564 5562 5561 5560 5559 5558 5558 5557 5557 5557 5556 5556 5555 5555 5554 5553 5552 5551 5550 5549 5548 5547 5546 5545 5545 5543 5543
5599 5599 5599 5598 5598 5598 5597 5597 5596 5596 5595 5595 5594 5593 5593 5592 5591 5590 5590 5589 5588 5587 5586 5586 5585 5584 5582 5581 5580 5579 5578 5576 5575 5574 5572 5571 5569 5568 5566 5565 5563 5561 5560 5558 5556 5555 5553 5552 5551 5550 5549 5549 5548 5547 5547 5546 5545 5545 5544 5543 5542 5541 5540 5540 5539 5538 5537 5536 5535
5598 5598 5597 5597 5597 5596 5596 5595 5595 5594 5594 5593 5593 5592 5591 5590 5590 5589 5588 5587 5586 5585 5585 5584 5582 5581 5580 5579 5578 5576 5575 5574 5572 5570 5569 5567 5565 5564 5562 5561 5559 5557 5556 5554 5552 5550 5549 5547 5545 5544 5543 5542 5540 5540 5539 5538 5537 5536 5535 5534 5534 5533 5532 5531 5530 5530 5529 5528 5527